MST,Max TemperatureF,Mean TemperatureF,Min TemperatureF,Max Dew PointF,MeanDew PointF,Min DewpointF,Max Humidity, Mean Humidity, Min Humidity, Max Sea Level PressureIn, Mean Sea Level PressureIn, Min Sea Level PressureIn, Max VisibilityMiles, Mean VisibilityMiles, Min VisibilityMiles, Max Wind SpeedMPH, Mean Wind SpeedMPH, Max Gust SpeedMPH,PrecipitationIn, CloudCover, Events, WindDirDegrees
2012-12-1,71,54,36,26,25,21,56,38,19,29.94,29.86,29.72,10,10,10,16,8,21,0.00,0,,193
2012-12-2,70,51,31,28,23,14,66,41,16,30.00,29.81,29.55,10,10,10,18,7,23,0.00,0,,193
2012-12-3,61,45,29,25,19,14,53,37,21,30.19,29.92,29.55,10,10,5,28,8,36,0.00,2,,351
2012-12-4,58,37,16,24,18,9,68,46,24,30.40,30.27,30.17,10,9,0,12,4,15,0.00,0,,221
2012-12-5,70,47,24,24,20,16,69,44,18,30.15,29.94,29.71,10,10,10,17,7,22,0.00,0,,204
2012-12-6,56,44,31,32,23,15,56,42,28,29.94,29.87,29.71,10,10,10,23,9,30,T,2,Rain,47
2012-12-7,55,36,17,21,16,11,68,46,24,30.02,29.89,29.79,10,10,10,18,6,23,0.00,0,,179
2012-12-8,57,35,12,30,20,8,84,57,30,29.99,29.80,29.60,10,10,8,29,10,37,0.00,1,,146
2012-12-9,34,19,4,15,6,-3,69,53,37,30.35,30.17,29.89,10,10,10,25,12,35,0.00,5,,342
2012-12-10,42,21,-1,8,2,-4,87,53,18,30.27,30.08,29.95,10,10,10,15,7,17,0.00,1,,255
2012-12-11,44,28,12,19,9,-1,88,54,19,30.17,30.04,29.91,10,10,10,17,8,21,0.00,1,,223
2012-12-12,64,36,8,13,7,0,69,41,12,29.98,29.90,29.80,10,10,8,24,6,30,0.00,0,,243
2012-12-13,62,41,19,17,12,6,62,38,14,30.06,29.95,29.86,10,10,10,13,6,14,0.00,0,,162
2012-12-14,43,31,19,38,25,7,100,70,40,29.87,29.63,29.42,10,8,2,18,6,23,0.05,4,Rain,268
2012-12-15,53,36,18,32,26,19,92,65,38,29.75,29.70,29.57,10,10,10,22,8,29,0.00,1,,256
2012-12-16,43,31,18,30,23,15,92,75,57,29.88,29.77,29.65,10,9,7,12,4,14,0.00,2,,184
2012-12-17,58,35,11,21,16,9,92,55,17,29.87,29.74,29.61,10,10,8,26,11,31,0.00,0,,246
2012-12-18,53,35,17,21,15,11,73,47,21,29.81,29.72,29.58,10,10,10,20,9,24,0.00,0,,138
2012-12-19,38,29,20,21,17,2,75,56,37,30.21,29.76,29.52,10,5,1,52,22,63,T,5,Snow,355
2012-12-20,49,28,6,7,2,-2,73,43,13,30.40,30.32,30.23,10,10,10,18,10,25,0.00,0,,244
2012-12-21,54,31,8,13,8,3,80,51,21,30.38,30.23,30.10,10,10,10,13,5,15,0.00,0,,246
2012-12-22,52,31,10,11,8,-1,80,49,18,30.13,30.05,29.97,10,10,10,16,7,18,0.00,0,,238
2012-12-23,53,30,6,13,7,-1,76,47,18,30.11,29.99,29.91,10,10,10,18,6,,0.00,0,,225
2012-12-24,44,28,11,18,13,4,88,61,33,30.03,29.91,29.75,10,8,2,26,14,35,T,3,Snow,89
2012-12-25,18,4,-10,12,5,-15,100,87,73,30.44,30.19,29.95,10,3,1,17,9,20,0.02,7,Snow,16
2012-12-26,23,7,-10,15,1,-11,92,80,68,30.33,30.04,29.77,10,6,0,16,6,20,0.00,4,Fog,88
2012-12-27,29,14,-1,17,10,-5,92,78,63,30.08,29.85,29.64,10,7,5,12,5,38,0.00,4,,307
2012-12-28,35,20,5,19,13,3,92,72,51,30.24,30.13,30.05,10,9,6,17,7,22,0.00,3,,262
2012-12-29,36,17,-2,19,10,-6,87,65,43,30.42,30.26,30.01,10,10,10,26,9,32,0.00,0,,220
2012-12-30,36,23,10,23,14,6,84,66,47,30.09,30.02,29.98,10,10,10,16,6,20,0.00,0,,46
2012-12-31,25,20,15,20,17,14,92,77,62,30.21,30.03,29.95,10,4,0,13,6,15,0.05,7,Fog-Snow,6